[[{"header":{"parameterUnit":"m.s-1","parameterCategory":1,"la1":30.2991,"la2":30.254,"lo1":-89.0895,"lo2":-89.0444,"dy":0.0017,"dx":0.0017,"nx":28,"ny":28,"refTime":"2024-10-20T21:00:00:Z","depth":0,"parameterNumber":2,"parameterNumberName":"U-component_of_WINDS"},"data":[0,0,0,0,0,0,0,0,0,0,0,0,0,0,0,0,0,0,0,0,0,0,0,0,0,0,0,0,0,0,0,0,0,0,0,0,0,0,0,0,0,0,0,0,0,0,0,0,0,0,0,0,0,0,0,0,0,0,-3.1503,-3.1503,0,-3.1504,-3.1504,-3.1503,-3.1342,-3.1337,-3.1333,-3.1329,-3.1331,-3.1335,-3.1339,0,0,0,0,0,0,0,0,0,0,0,0,0,-3.1362,-3.1366,-3.1503,-3.1503,-3.1503,-3.1504,-3.1504,-3.1503,-3.1342,-3.1337,-3.1332,-3.1327,-3.133,-3.1335,-3.1339,0,0,0,0,0,0,0,0,0,0,0,0,0,-3.1399,-3.1367,-3.1503,-3.1423,-3.1415,-3.1504,-3.1504,-3.1503,-3.1344,-3.1337,-3.1331,-3.1325,-3.1328,-3.1334,-3.134,-3.1505,0,0,-3.1358,-3.1361,0,0,0,0,0,0,0,0,-3.1397,-3.1405,-3.1434,-3.1428,-3.142,-3.1416,-3.1454,-3.1504,-3.1345,-3.1371,-3.1329,-3.1322,-3.1365,-3.1367,-3.1381,-3.1505,-3.1505,-3.1359,-3.1363,-3.1365,-3.1367,0,0,0,0,0,0,0,-3.1395,-3.1404,-3.1503,-3.1435,-3.1426,-3.1386,-3.1385,-3.1463,-3.1404,-3.1368,-3.1356,-3.1359,-3.1359,-3.1376,-3.138,-3.1505,-3.1359,-3.1364,-3.1368,-3.137,-3.1766,-3.1772,0,0,0,0,0,0,-3.1403,-3.1403,-3.1503,-3.1503,-3.1393,-3.1394,-3.1392,-3.1424,-3.1402,-3.1393,-3.1364,-3.1351,-3.1369,-3.1373,-3.138,-3.1573,-3.1365,-3.1371,-3.1374,-3.1759,-3.1767,-3.1775,0,0,0,0,0,0,-3.1401,-3.1414,-3.1503,-3.145,-3.1458,-3.1403,-3.144,-3.1427,-3.1443,-3.1399,-3.1388,-3.1392,-3.1364,-3.1371,-3.1475,-3.1571,-3.1374,-3.1379,-3.1751,-3.1761,-3.1771,-3.1961,0,0,0,0,0,0,-3.1398,-3.1414,-3.1476,-3.1452,-3.1461,-3.1599,-3.1446,-3.1432,-3.1454,-3.1437,-3.1422,-3.1414,-3.136,-3.1467,-3.1481,-3.1576,-3.1384,-3.1742,-3.1756,-3.1768,-3.1946,-3.1977,-3.2003,0,0,0,0,0,-3.1393,-3.153,-3.148,-3.1493,-3.1538,-3.1605,-3.161,-3.1545,-3.1463,-3.1525,-3.1496,-3.1414,-3.1558,-3.1479,-3.1494,-3.1591,-3.1736,-3.1752,-3.1767,-3.1933,-3.1971,-3.2002,0,0,0,0,0,0,-3.1567,-3.1525,-3.147,-3.1603,-3.1609,-3.1578,-3.1654,-3.1586,-3.1616,-3.1599,-3.1516,-3.1514,-3.1632,-3.1621,-3.1535,-3.175,-3.1632,-3.1651,-3.1754,-3.1789,-3.1817,-3.1818,-3.1389,0,0,0,0,0,-3.1621,-3.1678,-3.1638,-3.176,-3.1765,-3.171,-3.1736,-3.1685,-3.1688,-3.169,-3.1669,-3.1675,-3.1721,-3.1754,-3.1794,-3.1942,-3.1938,-3.2017,-3.2045,-3.2068,-3.2087,-3.2166,-3.2201,-3.1826,-3.1825,-3.1825,0,0,-3.1733,-3.1717,-3.1758,-3.1794,-3.1793,-3.1855,-3.1713,-3.1784,-3.183,-3.1701,-3.1799,-3.1783,-3.1785,-3.1912,-3.1967,-3.1907,-3.2189,-3.2088,-3.2107,-3.2113,-3.2186,-3.2221,-3.2253,-3.1836,-3.1834,-3.1832,0,0,-3.1969,-3.1962,-3.2063,-3.2064,-3.2063,-3.2025,-3.205,-3.2029,-3.2014,-3.211,-3.2015,-3.2067,-3.2148,-3.2154,-3.2167,-3.2405,-3.2331,-3.242,-3.2569,-3.2647,-3.2677,-3.2703,-3.279,-3.2821,-3.2438,-3.2438,-3.2438,0,-3.2108,-3.2198,-3.2123,-3.2201,-3.2221,-3.2105,-3.2207,-3.2212,-3.2225,-3.2241,-3.2173,-3.2273,-3.2265,-3.2393,-3.2451,-3.2465,-3.2491,-3.2423,-3.2678,-3.2704,-3.2727,-3.2809,-3.2841,-3.2449,-3.2448,-3.2447,-3.2446,0,-3.237,-3.2434,-3.2515,-3.2531,-3.2558,-3.2648,-3.2587,-3.2624,-3.257,-3.254,-3.264,-3.2627,-3.2663,-3.2688,-3.2636,-3.281,-3.2772,-3.2693,-3.2573,-3.2775,-3.2851,-3.2881,-3.2465,-3.2461,-3.2458,-3.2455,0,0,-3.2718,-3.2691,-3.2722,-3.2728,-3.2719,-3.2766,-3.2851,-3.2885,-3.292,-3.2932,-3.3001,-3.3072,-3.2999,-3.3014,-3.2961,-3.3029,-3.3221,-3.2941,-3.294,-3.2996,-3.3413,-3.3475,-3.3513,-3.317,-3.3176,-3.318,-3.3413,0,-3.2949,-3.3092,-3.3027,-3.3178,-3.3236,-3.3127,-3.32,-3.3203,-3.3176,-3.3222,-3.3191,-3.3244,-3.3141,-3.315,-3.3213,-3.3185,-3.3304,-3.3166,-3.3236,-3.324,-3.3242,-3.3552,-3.3618,-3.3839,-3.3442,-3.3447,-3.3451,0,-3.3238,-3.3263,-3.3419,-3.3399,-3.3421,-3.3489,-3.3516,-3.356,-3.3561,-3.3536,-3.3554,-3.3485,-3.3567,-3.3445,-3.3557,-3.3466,-3.3489,-3.348,-3.3487,-3.3493,-3.336,-3.3569,-3.3907,-3.3942,-3.3496,-3.3493,-3.3489,0,-3.3479,-3.3551,-3.3654,-3.3662,-3.3641,-3.3692,-3.3685,-3.3679,-3.3704,-3.3727,-3.3743,-3.3776,-3.3794,-3.3821,-3.3763,-3.368,-3.3884,-3.3758,-3.3868,-3.387,-3.3919,-3.3917,-3.4268,-3.393,-3.3929,-3.3929,-3.3928,0,-3.3746,-3.3847,-3.3763,-3.3827,-3.3936,-3.386,-3.397,-3.3952,-3.3947,-3.4006,-3.3912,-3.397,-3.3888,-3.3938,-3.3892,-3.3993,-3.4002,-3.3985,-3.3973,-3.3996,-3.3998,-3.4013,-3.3997,-3.3937,-3.3936,-3.3934,-3.3932,0,-3.4035,-3.3983,-3.4089,-3.406,-3.4055,-3.4137,-3.4112,-3.4171,-3.4136,-3.4212,-3.4225,-3.4172,-3.4225,-3.417,-3.4218,-3.4188,-3.4325,-3.4288,-3.4326,-3.4316,-3.4431,-3.4422,-3.4806,-3.4853,-3.4482,-3.4486,-3.4489,0,-3.421,-3.4285,-3.4264,-3.4297,-3.4296,-3.435,-3.4375,-3.4302,-3.4332,-3.4338,-3.4396,-3.4441,-3.4473,-3.4563,-3.453,-3.4567,-3.4532,-3.4664,-3.4537,-3.4558,-3.4537,-3.4535,-3.4543,-3.4691,-3.4695,-3.4699,-3.4702,0,-3.4527,-3.4497,-3.4537,-3.4569,-3.4602,-3.4623,-3.4637,-3.4669,-3.4593,-3.4632,-3.4685,-3.471,-3.476,-3.4807,-3.4834,-3.4827,-3.4754,-3.4742,-3.4769,-3.4795,-3.4815,-3.4808,-3.4399,-3.4734,-3.4731,-3.4728,-3.4727,-3.4725,-3.4766,-3.4828,-3.4824,-3.4871,-3.4874,-3.4889,-3.4943,-3.4915,-3.4958,-3.4993,-3.4947,-3.5014,-3.5011,-3.504,-3.5042,-3.5093,-3.5037,-3.5077,-3.5088,-3.51,-3.5118,-3.4804,-3.5097,-3.5096,-3.5095,-3.5094,-3.5094,0,-3.508,-3.5072,-3.5116,-3.5139,-3.5177,-3.5102,-3.5113,-3.5151,-3.521,-3.5214,-3.5248,-3.5309,-3.5354,-3.5323,-3.5361,-3.5408,-3.5375,-3.542,-3.5418,-3.5418,-3.5164,-3.5138,-3.5446,-3.5446,-3.5446,-3.5446,-3.5446,-3.5446,-3.5249,-3.535,-3.532,-3.5422,-3.5412,-3.5476,-3.549,-3.5503,-3.5506,-3.5579,-3.5616,-3.5595,-3.5586,-3.5622,-3.5659,-3.5649,-3.5669,-3.5727,-3.5706,-3.547,-3.5435,-3.5403,-3.5377,-3.5731,-3.5732,-3.5955,-3.5957,-3.5958]},{"header":{"parameterUnit":"m.s-1","parameterCategory":1,"la1":30.2991,"la2":30.254,"lo1":-89.0895,"lo2":-89.0444,"dy":0.0017,"dx":0.0017,"nx":28,"ny":28,"refTime":"2024-10-20T21:00:00:Z","depth":0,"parameterNumber":3,"parameterNumberName":"V-component_of_WINDS"},"data":[0,0,0,0,0,0,0,0,0,0,0,0,0,0,0,0,0,0,0,0,0,0,0,0,0,0,0,0,0,0,0,0,0,0,0,0,0,0,0,0,0,0,0,0,0,0,0,0,0,0,0,0,0,0,0,0,0,0,-1.7397,-1.7398,0,-1.7468,-1.7469,-1.747,-1.7506,-1.7507,-1.7507,-1.7507,-1.7576,-1.7578,-1.7579,0,0,0,0,0,0,0,0,0,0,0,0,0,-1.7289,-1.7291,-1.7397,-1.7398,-1.7399,-1.7468,-1.7469,-1.747,-1.7506,-1.7507,-1.7507,-1.7507,-1.7575,-1.7577,-1.7579,0,0,0,0,0,0,0,0,0,0,0,0,0,-1.7345,-1.7291,-1.7397,-1.7425,-1.7429,-1.7468,-1.7469,-1.747,-1.7506,-1.7507,-1.7507,-1.7507,-1.7574,-1.7577,-1.758,-1.7595,0,0,-1.7588,-1.7589,0,0,0,0,0,0,0,0,-1.7342,-1.7349,-1.742,-1.7424,-1.7427,-1.7479,-1.7456,-1.7512,-1.7506,-1.7477,-1.7507,-1.7507,-1.7543,-1.7548,-1.7561,-1.7598,-1.7601,-1.7588,-1.759,-1.7591,-1.7592,0,0,0,0,0,0,0,-1.7338,-1.7346,-1.7425,-1.7421,-1.7426,-1.7433,-1.7441,-1.7467,-1.7509,-1.7479,-1.7482,-1.749,-1.7545,-1.7559,-1.7563,-1.7602,-1.7588,-1.7591,-1.7592,-1.7593,-1.7654,-1.7654,0,0,0,0,0,0,-1.733,-1.7343,-1.7423,-1.7427,-1.7384,-1.7435,-1.7444,-1.7462,-1.7508,-1.7516,-1.749,-1.7492,-1.7554,-1.756,-1.7566,-1.7587,-1.7591,-1.7594,-1.7595,-1.7654,-1.7654,-1.7654,0,0,0,0,0,0,-1.7328,-1.7337,-1.742,-1.7386,-1.7397,-1.7437,-1.7457,-1.7463,-1.7477,-1.7517,-1.7524,-1.7497,-1.7554,-1.7562,-1.7588,-1.7589,-1.7595,-1.7597,-1.7654,-1.7654,-1.7654,-1.7628,0,0,0,0,0,0,-1.7324,-1.7336,-1.7343,-1.7386,-1.7399,-1.7442,-1.7457,-1.7465,-1.7482,-1.7485,-1.7525,-1.7531,-1.7555,-1.7583,-1.759,-1.7593,-1.7599,-1.7654,-1.7654,-1.7654,-1.7629,-1.7627,-1.7625,0,0,0,0,0,-1.732,-1.7332,-1.7343,-1.7353,-1.7409,-1.7442,-1.7449,-1.7477,-1.7482,-1.7489,-1.7514,-1.753,-1.7588,-1.7586,-1.7594,-1.7598,-1.7654,-1.7654,-1.7654,-1.7629,-1.7627,-1.7625,0,0,0,0,0,0,-1.7287,-1.7338,-1.7351,-1.7377,-1.7405,-1.7448,-1.7457,-1.7474,-1.75,-1.7501,-1.7533,-1.7542,-1.7564,-1.7583,-1.758,-1.7614,-1.7622,-1.7624,-1.7601,-1.7599,-1.7598,-1.7593,-1.7602,0,0,0,0,0,-1.7283,-1.7307,-1.735,-1.7368,-1.7382,-1.7417,-1.7432,-1.7452,-1.7481,-1.7493,-1.752,-1.7547,-1.7571,-1.7586,-1.7611,-1.7631,-1.764,-1.7638,-1.7636,-1.7635,-1.7636,-1.7647,-1.7647,-1.7654,-1.7654,-1.7654,0,0,-1.7275,-1.7305,-1.7318,-1.7363,-1.7386,-1.7409,-1.7427,-1.745,-1.7467,-1.7496,-1.7522,-1.7542,-1.7574,-1.7598,-1.7609,-1.7614,-1.7636,-1.7635,-1.7633,-1.7635,-1.7647,-1.7647,-1.7646,-1.7654,-1.7654,-1.7654,0,0,-1.7271,-1.7297,-1.7316,-1.7339,-1.7375,-1.7398,-1.7402,-1.7443,-1.7458,-1.7485,-1.7507,-1.7527,-1.7568,-1.759,-1.7606,-1.761,-1.7625,-1.7617,-1.7608,-1.7619,-1.7619,-1.7618,-1.7619,-1.7619,-1.7617,-1.7617,-1.7617,0,-1.7256,-1.7292,-1.7323,-1.7345,-1.7363,-1.7391,-1.741,-1.7431,-1.7472,-1.7483,-1.7489,-1.7541,-1.7565,-1.7593,-1.7594,-1.7606,-1.7611,-1.7612,-1.7616,-1.7616,-1.7617,-1.7618,-1.7618,-1.7616,-1.7616,-1.7616,-1.7616,0,-1.7271,-1.7296,-1.7306,-1.7347,-1.7366,-1.7386,-1.7418,-1.7434,-1.7451,-1.7473,-1.75,-1.7529,-1.756,-1.7568,-1.7584,-1.7598,-1.76,-1.761,-1.7619,-1.7614,-1.7616,-1.7616,-1.7614,-1.7615,-1.7615,-1.7615,0,0,-1.7249,-1.7306,-1.7309,-1.7328,-1.7369,-1.7388,-1.7409,-1.744,-1.7453,-1.748,-1.7497,-1.7531,-1.7541,-1.756,-1.7579,-1.7589,-1.7589,-1.7598,-1.7599,-1.7595,-1.7605,-1.7597,-1.7597,-1.7599,-1.76,-1.76,-1.7603,0,-1.7251,-1.7291,-1.7319,-1.7347,-1.737,-1.7396,-1.7414,-1.7441,-1.7462,-1.7483,-1.7505,-1.7529,-1.754,-1.7552,-1.7563,-1.7587,-1.7592,-1.7587,-1.7615,-1.7616,-1.7606,-1.7598,-1.759,-1.7592,-1.7604,-1.7604,-1.7604,0,-1.7259,-1.7287,-1.7317,-1.7356,-1.7367,-1.7382,-1.7413,-1.7433,-1.7463,-1.7477,-1.7498,-1.7518,-1.7539,-1.7546,-1.7575,-1.7572,-1.7585,-1.7598,-1.7599,-1.7602,-1.7609,-1.7602,-1.7593,-1.7593,-1.7605,-1.7605,-1.7605,0,-1.7239,-1.7284,-1.7309,-1.7323,-1.7369,-1.7379,-1.7399,-1.7429,-1.7446,-1.7472,-1.7483,-1.751,-1.7525,-1.7546,-1.7572,-1.7574,-1.7598,-1.7607,-1.761,-1.7609,-1.7614,-1.7613,-1.7607,-1.7622,-1.7622,-1.7622,-1.7622,0,-1.7239,-1.7257,-1.73,-1.7315,-1.7335,-1.7366,-1.7385,-1.7406,-1.7433,-1.7452,-1.7476,-1.7492,-1.7526,-1.7546,-1.7566,-1.7587,-1.7594,-1.7606,-1.7611,-1.7604,-1.7602,-1.7612,-1.7613,-1.7622,-1.7622,-1.7622,-1.7622,0,-1.7221,-1.7251,-1.7279,-1.732,-1.7331,-1.7344,-1.7378,-1.7393,-1.7415,-1.7438,-1.7445,-1.748,-1.7505,-1.7533,-1.7567,-1.758,-1.76,-1.7607,-1.759,-1.7593,-1.7594,-1.7593,-1.7594,-1.7595,-1.761,-1.7609,-1.7609,0,-1.7219,-1.7233,-1.7276,-1.729,-1.7309,-1.7332,-1.735,-1.738,-1.7397,-1.7432,-1.7442,-1.7469,-1.7493,-1.7531,-1.7558,-1.7584,-1.7593,-1.7591,-1.7597,-1.7589,-1.7592,-1.7591,-1.7592,-1.7589,-1.7589,-1.7589,-1.7588,0,-1.7211,-1.7225,-1.725,-1.728,-1.73,-1.7325,-1.735,-1.736,-1.7395,-1.7413,-1.7439,-1.7457,-1.7492,-1.7519,-1.7548,-1.7566,-1.7583,-1.7586,-1.7588,-1.7581,-1.757,-1.7576,-1.7585,-1.7586,-1.7587,-1.7587,-1.7587,-1.7587,-1.7201,-1.7215,-1.7247,-1.7273,-1.7296,-1.7319,-1.7335,-1.7359,-1.7382,-1.7414,-1.743,-1.7456,-1.7485,-1.7526,-1.7544,-1.7564,-1.7569,-1.7572,-1.7573,-1.7573,-1.7571,-1.7567,-1.7569,-1.7569,-1.7569,-1.7569,-1.7569,0,-1.7195,-1.7217,-1.7241,-1.7276,-1.7296,-1.7311,-1.734,-1.7355,-1.7379,-1.7404,-1.7427,-1.7457,-1.7482,-1.7511,-1.7538,-1.7549,-1.7557,-1.7554,-1.7554,-1.7558,-1.7564,-1.756,-1.7547,-1.7547,-1.7547,-1.7547,-1.7547,-1.7547,-1.7194,-1.7218,-1.7236,-1.7271,-1.7292,-1.7319,-1.7334,-1.7355,-1.7376,-1.7408,-1.743,-1.7449,-1.7476,-1.7505,-1.7528,-1.7536,-1.7545,-1.754,-1.755,-1.7556,-1.7557,-1.7559,-1.7555,-1.7542,-1.7542,-1.7542,-1.7542,-1.7542]}]]